Lid_Strength_Index
1 0 3 5 10 10 14 13 9 10 10 7 5 7 8 7 9 12 2 1 0 0 -0 -1 -1 -1 -1 -1 -1 -1 -1 -1 -1 -1 -1 -1 -1 -1 -1 -1 -1 -1 -1 -1 -1 -1 -1 -1 -1
0 1 5 8 12 15 14 10 11 9 8 6 6 6 7 9 5 4 3 0 -0 -0 -0 -0 -1 -1 -1 -1 -1 -1 -1 -1 -1 -1 -1 -1 -1 -1 -1 -1 -1 -1 -1 -1 -1 -1 -1 -1 -1
3 4 8 11 13 15 14 11 9 8 6 7 7 5 6 8 4 3 1 0 -0 0 -0 -0 -1 -1 -1 -1 -1 -1 -1 -1 -1 -1 -1 -1 -1 -1 -1 -1 -1 -1 -1 -1 -1 -1 -1 -1 -1
4 8 10 12 13 12 12 11 8 8 7 6 6 9 5 3 3 2 0 0 0 0 -0 -1 -1 -1 -1 -1 -1 -1 -1 -1 -1 -1 -1 -1 -1 -1 -1 -1 -1 -1 -1 -1 -1 -1 -1 -1 -1
9 10 13 15 15 13 12 8 7 9 8 7 6 9 7 3 1 1 1 0 1 0 -0 -0 -1 -1 -1 -1 -1 -1 -1 -1 -1 -1 -1 -1 -1 -1 -1 -1 -1 -1 -1 -1 -1 -1 -1 -1 -1
11 12 14 16 15 14 9 7 7 8 7 7 7 8 7 2 2 1 0 1 0 0 0 0 -1 -1 -1 -1 -1 -1 -1 -1 -1 -1 -1 -1 -1 -1 -1 -1 -1 -1 -1 -1 -1 -1 -1 -1 -1
11 13 15 16 15 14 9 6 8 8 8 8 6 9 6 4 2 1 1 0 0 0 1 1 0 -0 -1 -1 -1 -1 -1 -1 -1 -1 -1 -1 -1 -1 -1 -1 -1 -1 -1 -1 -1 -1 -1 -1 -1
11 12 15 15 15 15 8 7 7 7 8 4 4 9 8 4 2 1 1 1 1 1 0 0 1 -0 -0 -0 -1 -1 -1 -1 -1 -1 -1 -1 -1 -1 -1 -1 -1 -1 -1 -1 -1 -1 -1 -1 -1
11 14 15 14 14 13 9 9 6 5 7 6 5 5 4 3 1 2 2 2 2 1 1 0 0 0 -0 -0 -1 -1 -1 -1 -1 -1 -1 -1 -1 -1 -1 -1 -0 -1 -1 -1 -1 -1 -1 -1 -1
13 15 13 12 12 13 13 8 7 7 8 7 6 4 4 3 3 4 3 5 4 3 2 2 2 -0 -0 -1 -0 1 0 0 0 0 -0 -1 -1 -0 0 -0 -1 -1 -1 -1 -1 -1 -1 -1 -1
14 13 12 12 11 11 8 8 6 8 10 7 7 6 4 4 4 4 5 4 4 3 3 3 2 2 1 1 2 2 1 1 1 1 0 -0 -0 -0 0 -1 -1 -1 -1 -1 -1 -1 -1 -1 -1
12 11 10 12 9 11 8 7 8 7 7 5 5 4 4 5 5 5 4 3 3 3 2 2 2 1 1 1 2 2 3 2 1 0 -1 -0 -0 -0 0 -0 -1 -1 -1 -0 0 -0 -1 -1 -1
13 11 10 10 7 7 7 8 8 8 5 4 5 5 6 6 6 6 5 3 4 4 3 2 3 3 3 3 3 3 2 1 1 0 -0 -0 0 0 -0 -0 -1 -1 -1 0 0 -0 -0 1 0
10 10 9 8 8 7 8 8 8 7 5 5 6 7 7 7 7 7 7 6 5 5 5 2 3 2 2 3 3 2 2 2 2 2 2 -1 1 1 1 1 1 1 -0 -1 0 0 0 1 1
9 10 9 8 8 8 7 10 10 6 5 7 8 8 7 7 7 7 7 7 6 6 5 4 3 3 3 3 2 1 2 4 4 3 3 3 3 3 1 1 2 1 -1 0 0 -0 -0 0 -0
11 12 13 10 9 8 8 14 8 6 7 8 8 8 9 9 8 6 6 7 6 7 7 6 5 4 3 4 4 4 3 5 5 5 5 5 5 5 4 5 5 3 2 2 2 1 1 1 1
13 15 14 12 9 9 10 13 8 6 8 9 9 9 8 8 7 7 7 7 7 7 7 7 7 5 5 3 5 5 5 6 6 7 7 6 6 6 6 6 6 5 4 4 4 3 2 1 2
15 15 14 13 11 10 12 12 9 7 8 9 8 9 9 9 9 7 6 6 7 7 7 7 7 7 6 5 3 5 7 8 8 8 8 7 6 6 7 7 6 5 4 4 4 3 1 1 3
12 13 13 12 10 11 12 11 10 8 8 9 9 10 9 9 7 6 6 6 7 7 8 8 8 8 8 7 6 5 6 8 9 9 8 8 7 6 6 7 6 6 7 6 5 4 3 1 1
12 13 14 11 10 11 11 12 9 9 9 9 9 9 9 8 8 7 7 7 7 7 7 8 8 8 7 7 7 7 7 7 8 8 8 7 6 6 6 7 7 7 7 6 6 5 5 3 2
13 13 13 14 11 10 12 13 11 9 9 9 9 8 8 8 9 7 8 7 7 8 8 8 8 8 8 8 8 8 8 8 9 8 8 8 7 7 7 7 7 6 7 7 6 6 6 6 4
14 9 11 12 14 17 12 19 13 11 10 10 10 10 9 9 8 8 8 8 8 8 8 8 8 9 9 9 10 10 10 10 9 9 9 8 7 7 6 5 6 6 7 7 6 5 6 6 6
11 10 11 11 14 13 14 16 15 11 12 11 10 10 9 9 9 7 8 8 8 8 9 8 8 8 8 8 8 9 10 10 10 10 10 9 7 6 6 6 6 6 6 6 6 5 5 5 5
10 11 12 14 15 17 15 15 15 14 12 11 10 9 8 9 7 7 8 8 8 8 8 8 8 9 8 8 8 8 9 9 9 9 9 8 8 7 6 6 6 6 5 5 5 5 4 4 4
11 14 17 17 17 17 13 15 14 11 9 9 10 10 9 9 9 8 9 9 9 8 8 8 9 9 8 8 7 8 8 9 9 9 9 9 8 7 6 6 5 5 5 4 4 4 3 3 3
14 14 16 19 19 17 13 17 15 9 8 9 9 9 9 10 9 9 9 9 9 8 8 8 9 8 8 8 8 8 8 8 8 8 8 8 7 7 6 6 5 5 4 4 4 3 3 3 3
13 16 14 16 17 17 15 14 11 10 11 10 11 10 10 11 10 10 10 10 9 9 9 9 8 8 8 8 8 8 8 8 8 7 7 7 7 6 6 6 5 5 5 5 5 5 5 5 5
12 12 15 16 19 19 16 17 15 13 11 11 11 11 11 11 11 10 11 10 10 9 9 8 8 8 8 8 8 8 8 8 8 7 7 6 6 5 5 6 5 5 5 5 5 5 6 6 6
12 14 15 15 16 18 18 16 11 11 10 10 10 10 11 12 11 12 11 10 10 9 8 8 8 8 8 8 8 8 8 8 7 7 6 6 5 5 5 6 6 6 6 6 6 6 6 6 6
12 14 14 16 17 16 17 16 10 10 9 9 10 10 11 11 12 12 11 11 10 10 8 8 8 8 8 7 7 8 7 6 7 7 7 6 6 6 6 7 7 7 7 6 6 6 6 7 7